Tracking 27079 objects as of 23-Mar-2023
HD Live streaming from Space Station
objects crossing your sky now

GORIZONT 2

Track GORIZONT 2 now!
GORIZONT 2 is classified as:


NORAD ID: 11440
Int'l Code: 1979-062A
Perigee: 35,777.1 km
Apogee: 35,791.4 km
Inclination: 8.6 °
Period: 1,435.6 minutes
Semi major axis: 42155 km
RCS: 3.981 m2 (large)
Launch date: July 5, 1979
Source: Commonwealth of Independent States (former USSR) (CIS)
Launch site: TYURATAM MISSILE AND SPACE COMPLEX (TTMTR)
Your satellite tracking list
Your tracking list is empty




NASA's NSSDC Master Catalog

Two Line Element Set (TLE):
1 11440U 79062A   23080.63082271 -.00000170  00000-0  00000-0 0  9995
2 11440   8.6350 298.6378 0001700 337.4492 209.5366  1.00305631126152
Source of the keplerian elements: AFSPC